Temp
14 14 15 15 15 15 15 15 16 16 16 16 17 17 17 17 18 18 20 22 22 21 21 21 20 19 17 17 19 19 17 18 20 20 20 20 20 21 21 20 21 20 19 18 17
15 15 15 15 15 15 15 15 15 15 15 16 16 17 17 17 18 20 24 22 21 21 21 21 20 18 17 18 19 19 16 20 22 20 21 20 19 22 20 22 19 19 20 18 17
15 15 15 15 15 16 16 15 15 14 15 15 16 16 17 17 17 22 23 24 21 21 21 21 20 18 18 19 19 20 18 22 22 23 22 20 20 20 21 20 19 17 18 18 17
15 15 15 15 16 16 16 15 15 15 15 15 15 16 16 16 20 22 22 23 21 20 20 20 19 19 18 18 20 19 21 22 23 23 22 21 22 22 21 22 22 21 19 18 17
14 15 15 15 16 16 16 15 15 16 16 16 16 15 15 15 20 22 22 22 22 20 20 20 19 19 18 19 20 20 21 22 22 23 24 25 23 23 21 21 21 18 17 17 17
14 14 15 15 16 16 16 15 16 16 16 17 16 15 14 11 21 20 22 21 22 20 20 20 20 20 20 20 20 22 22 22 23 25 25 25 23 24 22 20 18 18 17 17 17
14 14 15 15 16 16 16 16 17 17 16 15 15 13 11 19 20 20 20 21 22 22 20 21 21 21 21 21 22 22 21 23 24 24 25 26 24 23 20 19 18 18 18 18 17
14 14 15 15 16 16 15 16 17 17 15 15 14 11 13 18 19 19 19 18 20 20 20 22 21 21 20 22 22 22 21 20 24 25 26 26 23 21 19 19 18 18 18 18 18
14 14 15 15 15 16 15 15 17 16 14 14 12 11 15 17 17 18 19 19 19 19 19 20 20 20 21 20 18 20 19 21 23 25 26 26 24 20 19 19 19 19 19 18 18
14 14 15 15 15 15 15 16 17 15 14 14 13 11 16 16 17 19 18 18 19 19 17 18 19 16 16 16 18 19 20 22 22 25 26 24 24 20 20 20 19 19 19 19 19
13 13 14 15 15 14 15 15 14 14 13 13 15 13 16 16 18 17 19 18 19 18 15 18 16 17 18 19 20 21 22 22 24 25 25 24 25 21 20 20 19 19 19 19 19
13 13 14 15 15 14 14 13 12 10 10 16 16 15 16 16 16 16 18 18 18 17 17 16 17 19 20 19 19 20 20 21 23 25 25 24 25 22 21 20 20 19 19 19 19
13 13 14 14 14 14 13 12 12 12 10 13 16 15 16 16 16 15 16 17 17 17 18 18 19 20 20 20 19 20 20 21 22 24 25 24 24 24 21 21 20 20 20 20 20
13 13 14 14 14 13 13 13 13 13 7 13 15 15 15 17 15 15 16 16 17 18 19 18 21 21 20 20 21 19 22 23 23 23 21 24 21 21 21 21 21 20 20 20 20
13 13 13 13 14 13 13 14 14 14 12 16 14 15 15 15 15 15 15 15 15 15 17 19 20 20 20 21 21 21 22 22 23 21 22 23 22 21 22 20 21 22 21 21 20
13 13 13 13 14 13 13 14 14 10 11 14 13 13 13 14 14 13 13 14 13 13 17 18 22 21 22 22 22 23 22 22 22 19 20 22 21 20 22 22 22 23 22 22 22
13 13 13 14 13 13 13 13 9 10 13 12 11 12 12 11 12 12 12 10 8 8 12 16 19 20 22 21 22 22 19 17 18 17 21 22 20 23 23 24 24 23 23 23 22
13 13 13 12 12 13 13 9 10 12 12 12 11 11 11 10 11 11 10 9 9 8 7 8 17 20 22 21 21 21 20 16 16 18 21 20 19 21 24 25 25 24 24 24 22
12 13 12 12 12 13 12 7 9 11 11 11 10 10 10 10 10 9 9 9 10 7 7 7 10 13 22 23 23 20 20 20 18 18 19 22 21 23 23 25 24 25 25 25 24
11 12 12 12 12 13 8 8 9 10 11 11 9 10 8 9 9 8 9 11 10 7 7 8 7 11 18 23 23 22 21 20 16 18 19 19 21 22 22 23 23 24 24 25 25
10 10 10 12 12 11 6 6 10 11 11 10 9 9 9 8 9 8 8 10 10 8 7 7 8 10 13 20 21 21 21 21 20 17 20 18 23 21 23 23 24 24 26 25 25
8 4 10 11 8 5 5 7 11 10 10 10 10 8 9 8 8 8 8 8 9 7 6 7 7 9 11 14 14 23 20 18 22 19 16 17 22 25 23 22 25 27 26 26 25
6 5 8 9 3 2 4 6 9 9 9 9 9 9 9 7 7 8 8 9 7 7 5 6 7 6 13 17 19 21 23 20 21 17 18 22 23 23 23 26 23 24 27 27 25
4 2 7 6 6 3 2 4 7 9 10 9 9 9 8 7 6 7 7 8 7 7 7 6 6 5 8 11 11 12 15 21 21 19 21 22 24 25 25 23 23 24 27 29 27
4 2 3 1 2 2 2 3 7 7 8 8 8 8 7 5 6 6 7 9 7 7 6 4 5 5 6 8 9 11 13 15 18 22 23 23 21 24 24 23 21 24 28 27 27
4 4 3 3 3 2 4 5 6 6 6 5 5 6 7 4 5 6 7 7 7 6 5 4 6 6 7 11 11 12 16 18 18 22 22 22 22 23 23 22 19 20 24 26 26
3 3 2 3 3 3 3 4 4 3 5 6 5 6 6 6 7 8 8 8 8 6 5 4 4 5 6 12 15 16 15 17 19 15 18 21 21 21 20 18 17 17 21 26 26
Height
1521 1517 1513 1509 1505 1501 1497 1494 1491 1489 1486 1484 1481 1478 1476 1475 1474 1472 1467 1472 1478 1481 1483 1487 1491 1495 1499 1501 1502 1502 1508 1509 1500 1498 1500 1495 1495 1495 1497 1499 1501 1501 1501 1507 1514
1521 1517 1513 1509 1504 1500 1496 1492 1489 1486 1484 1481 1478 1476 1473 1472 1469 1465 1465 1468 1474 1478 1479 1482 1487 1493 1498 1499 1500 1500 1508 1498 1488 1492 1494 1494 1495 1495 1499 1499 1501 1502 1504 1511 1517
1521 1517 1512 1508 1503 1498 1494 1491 1487 1484 1481 1478 1476 1473 1471 1469 1467 1459 1457 1458 1466 1473 1479 1483 1488 1491 1496 1497 1497 1495 1497 1488 1486 1487 1487 1491 1493 1496 1499 1499 1495 1496 1503 1508 1517
1520 1516 1511 1507 1502 1497 1493 1489 1486 1482 1477 1474 1472 1471 1470 1469 1469 1459 1457 1456 1461 1469 1475 1480 1486 1489 1492 1493 1492 1493 1483 1487 1486 1488 1490 1491 1491 1493 1498 1492 1491 1495 1499 1503 1512
1519 1515 1510 1505 1501 1496 1492 1488 1483 1480 1474 1469 1468 1468 1467 1467 1458 1459 1457 1456 1458 1465 1469 1473 1479 1484 1486 1487 1491 1488 1480 1483 1487 1488 1489 1488 1489 1490 1491 1491 1494 1499 1505 1509 1513
1518 1513 1508 1504 1498 1494 1489 1486 1481 1477 1473 1467 1464 1464 1465 1466 1456 1454 1455 1457 1458 1462 1467 1471 1473 1479 1482 1483 1484 1478 1482 1482 1483 1481 1482 1483 1486 1487 1489 1493 1498 1501 1505 1509 1513
1516 1511 1506 1501 1496 1491 1487 1484 1479 1474 1471 1466 1462 1459 1460 1453 1455 1453 1454 1458 1459 1460 1464 1469 1473 1478 1478 1480 1478 1481 1486 1482 1478 1475 1479 1480 1488 1487 1490 1494 1499 1503 1508 1512 1516
1514 1509 1504 1499 1493 1489 1485 1482 1477 1471 1468 1464 1461 1458 1452 1452 1454 1456 1456 1457 1460 1463 1467 1470 1476 1478 1478 1476 1474 1476 1483 1495 1475 1475 1477 1478 1492 1486 1487 1490 1499 1505 1508 1511 1513
1514 1508 1503 1498 1492 1486 1483 1480 1474 1470 1467 1463 1460 1459 1453 1454 1454 1453 1454 1454 1459 1463 1467 1473 1476 1476 1478 1481 1487 1481 1491 1485 1477 1469 1473 1475 1482 1484 1487 1489 1494 1501 1505 1509 1513
1514 1507 1502 1497 1491 1485 1481 1478 1473 1469 1467 1462 1461 1461 1457 1457 1454 1452 1451 1451 1455 1459 1468 1472 1472 1475 1478 1483 1490 1488 1485 1478 1478 1468 1469 1475 1475 1480 1482 1488 1490 1495 1500 1503 1506
1513 1506 1500 1495 1490 1486 1482 1476 1473 1472 1468 1470 1467 1469 1463 1456 1453 1453 1452 1452 1454 1458 1464 1464 1472 1467 1457 1463 1469 1470 1473 1473 1464 1464 1469 1472 1471 1477 1478 1486 1493 1492 1494 1499 1502
1511 1504 1497 1494 1489 1487 1485 1484 1490 1491 1476 1468 1468 1467 1464 1457 1453 1454 1452 1453 1453 1455 1457 1465 1461 1451 1461 1466 1471 1472 1476 1475 1461 1460 1466 1468 1469 1467 1474 1473 1476 1480 1487 1493 1501
1509 1502 1494 1491 1487 1487 1485 1487 1487 1485 1484 1470 1468 1468 1465 1458 1457 1457 1456 1453 1453 1452 1452 1454 1448 1453 1458 1462 1469 1469 1473 1473 1470 1462 1460 1466 1472 1464 1470 1477 1484 1485 1482 1489 1491
1508 1501 1494 1489 1488 1486 1485 1485 1483 1480 1490 1475 1470 1471 1466 1457 1458 1461 1459 1459 1453 1450 1449 1450 1443 1446 1452 1456 1458 1472 1458 1463 1465 1471 1489 1461 1493 1474 1471 1475 1477 1478 1480 1483 1488
1506 1498 1492 1488 1489 1487 1486 1482 1479 1480 1494 1473 1474 1475 1471 1471 1471 1459 1460 1454 1454 1453 1451 1435 1438 1445 1449 1442 1449 1453 1454 1461 1462 1471 1474 1469 1483 1471 1462 1473 1469 1469 1468 1475 1479
1504 1497 1491 1489 1487 1487 1483 1479 1479 1489 1490 1475 1475 1475 1471 1470 1469 1466 1463 1458 1455 1450 1437 1440 1433 1431 1431 1438 1443 1444 1453 1459 1462 1475 1482 1463 1476 1475 1461 1459 1458 1459 1459 1464 1468
1502 1494 1490 1489 1488 1485 1482 1477 1490 1495 1477 1481 1480 1474 1471 1472 1469 1467 1469 1469 1481 1473 1458 1441 1426 1429 1427 1436 1440 1444 1461 1491 1494 1493 1467 1451 1470 1452 1442 1439 1442 1447 1448 1453 1459
1499 1494 1491 1489 1487 1484 1481 1481 1492 1482 1481 1478 1478 1476 1478 1475 1474 1472 1476 1480 1481 1479 1480 1476 1442 1420 1415 1420 1433 1438 1447 1475 1492 1481 1462 1454 1460 1445 1428 1429 1431 1433 1434 1451 1459
1496 1493 1490 1489 1486 1484 1484 1498 1492 1485 1483 1482 1480 1480 1481 1479 1477 1478 1482 1482 1482 1488 1486 1483 1454 1426 1412 1411 1418 1432 1436 1438 1461 1463 1466 1440 1440 1425 1419 1421 1423 1425 1434 1444 1449
1494 1489 1488 1488 1485 1483 1487 1492 1487 1483 1482 1482 1485 1480 1484 1481 1482 1486 1485 1479 1481 1490 1489 1483 1477 1436 1412 1407 1408 1413 1422 1448 1455 1470 1470 1452 1440 1435 1424 1422 1420 1421 1426 1432 1437
1492 1487 1488 1485 1483 1483 1491 1491 1482 1482 1482 1482 1482 1483 1481 1482 1483 1488 1486 1481 1482 1483 1487 1487 1478 1441 1426 1404 1402 1411 1415 1417 1432 1449 1449 1462 1426 1408 1413 1412 1413 1411 1413 1419 1426
1493 1493 1488 1483 1484 1489 1492 1489 1483 1482 1480 1479 1480 1481 1479 1483 1483 1483 1483 1483 1480 1483 1484 1485 1476 1459 1433 1402 1406 1396 1409 1418 1421 1440 1445 1447 1421 1389 1394 1399 1401 1402 1404 1409 1414
1498 1493 1490 1487 1499 1500 1494 1489 1484 1483 1480 1478 1479 1478 1479 1482 1485 1479 1476 1476 1478 1481 1482 1483 1468 1467 1425 1405 1394 1393 1393 1400 1406 1423 1434 1436 1410 1390 1392 1390 1398 1400 1400 1403 1406
1502 1500 1493 1492 1498 1501 1500 1491 1485 1481 1477 1478 1476 1475 1477 1479 1479 1476 1474 1473 1475 1475 1475 1476 1469 1467 1446 1431 1435 1425 1413 1397 1403 1424 1421 1412 1400 1394 1388 1390 1390 1396 1397 1396 1401
1504 1503 1502 1502 1499 1501 1501 1493 1484 1482 1477 1477 1475 1476 1478 1480 1474 1473 1467 1466 1474 1472 1473 1474 1466 1461 1448 1439 1436 1430 1424 1414 1408 1398 1405 1404 1408 1388 1386 1387 1385 1383 1380 1377 1385
1505 1504 1503 1501 1499 1499 1495 1489 1486 1483 1483 1479 1480 1475 1471 1475 1470 1468 1464 1461 1463 1468 1471 1469 1458 1450 1434 1416 1420 1422 1409 1401 1400 1390 1396 1396 1393 1381 1384 1382 1382 1376 1367 1365 1372
1504 1504 1504 1500 1498 1497 1493 1489 1486 1485 1477 1475 1475 1472 1467 1462 1460 1457 1456 1453 1455 1457 1464 1465 1457 1451 1439 1408 1403 1414 1410 1398 1389 1404 1399 1399 1389 1385 1381 1380 1381 1375 1367 1365 1370
Wind_Speed
24 25 25 25 25 25 25 23 21 19 17 16 16 16 16 16 16 21 27 21 21 11 14 19 19 17 17 17 9 6 1 3 4 5 2 7 5 8 1 13 3 6 14 32 45
24 25 26 26 26 26 26 24 23 21 20 18 17 16 16 17 20 25 21 19 17 22 19 28 26 23 12 10 8 5 2 6 7 10 4 2 1 1 4 11 5 10 19 43 49
25 25 25 26 27 28 25 24 23 24 25 24 19 16 14 15 18 2 1 14 26 26 20 23 23 23 12 7 9 7 5 7 12 11 15 10 9 6 10 4 11 27 41 52 51
26 26 26 26 27 27 24 23 24 23 27 23 20 16 11 9 3 3 2 6 31 30 27 28 26 15 7 8 14 5 14 11 7 15 14 7 9 8 20 8 21 27 52 59 54
27 27 27 26 26 25 21 21 23 22 30 26 21 14 10 7 14 7 8 2 33 33 35 33 31 17 8 10 8 16 14 9 22 20 18 13 16 9 28 4 19 42 46 48 49
29 28 27 26 27 25 20 20 23 28 21 21 19 14 6 4 3 6 16 3 28 37 37 36 24 26 13 4 16 6 19 21 19 21 12 15 9 10 3 22 32 41 43 45 45
33 31 29 27 27 25 20 21 25 28 17 18 26 15 10 17 6 3 7 9 22 35 40 39 13 24 9 1 25 17 11 8 12 18 5 12 4 6 23 29 33 36 38 37 38
35 35 32 29 28 26 20 23 26 21 15 19 26 9 9 8 3 6 8 10 17 33 31 33 24 30 6 5 7 3 5 3 9 9 11 13 6 13 33 34 30 32 35 35 39
35 36 33 32 28 26 22 25 25 14 14 26 12 9 8 9 21 12 19 15 18 24 32 14 30 7 9 2 5 3 4 6 6 12 6 8 6 18 31 33 33 33 35 35 36
34 37 34 33 30 24 23 27 21 10 18 11 12 6 11 27 26 17 17 10 20 18 20 10 13 5 2 5 11 6 4 5 7 5 13 9 3 20 32 31 34 35 35 36 40
33 34 36 33 29 18 23 21 20 4 24 8 17 6 19 27 15 16 11 3 15 16 7 14 6 19 29 20 4 4 4 5 5 8 8 12 10 20 30 27 26 33 35 36 40
35 35 36 35 25 11 16 17 15 11 13 8 9 5 25 22 7 28 21 4 9 7 6 5 18 21 7 7 12 8 6 6 10 5 5 6 15 20 22 31 39 39 37 37 36
37 37 36 34 15 11 10 17 16 22 3 10 6 17 29 17 4 12 35 12 5 10 14 13 5 15 12 14 13 16 15 8 9 5 4 5 7 17 21 15 23 27 39 37 41
35 36 35 25 6 13 10 17 23 9 4 5 9 12 25 6 7 19 25 7 5 9 14 15 20 13 20 17 15 18 13 14 13 1 4 5 4 8 15 18 19 31 35 38 41
34 36 28 11 10 13 16 21 13 0 3 4 5 12 13 15 13 19 20 9 2 9 6 17 13 17 20 22 18 13 8 9 10 3 3 6 2 6 19 17 23 27 40 39 44
34 32 19 11 10 14 19 22 2 5 4 2 4 9 10 19 8 15 16 15 5 6 14 16 16 16 25 15 16 5 6 6 1 2 11 14 8 6 14 21 23 30 42 41 42
33 24 13 8 12 17 22 9 4 2 5 4 3 6 5 8 7 11 13 16 8 9 7 10 24 15 9 19 13 10 9 2 5 6 15 8 8 13 17 26 27 29 45 45 44
31 13 7 12 11 15 19 5 3 2 1 3 5 5 5 10 4 8 6 4 14 6 3 5 13 21 14 13 17 15 12 6 9 7 12 6 8 6 15 24 42 44 50 38 35
30 11 4 9 14 13 10 3 4 2 3 4 6 3 3 2 2 8 5 2 6 14 6 6 8 13 22 15 18 9 21 9 5 2 3 7 5 7 7 15 21 35 35 36 37
33 15 0 10 14 9 4 5 2 3 4 2 1 2 4 4 4 5 2 2 3 11 14 3 9 9 12 26 17 15 10 11 4 9 10 3 6 8 11 11 11 20 26 37 42
25 8 6 18 19 2 3 5 2 1 5 2 1 2 3 1 2 3 4 4 6 8 6 6 5 11 8 11 29 11 11 8 7 4 11 1 12 8 12 14 15 16 33 38 41
16 3 11 16 7 4 2 7 4 2 4 2 1 5 2 3 4 5 5 4 5 6 3 3 5 7 10 12 17 24 8 7 13 13 1 3 12 4 11 13 19 24 33 39 45
17 8 10 10 3 4 8 5 4 3 4 2 3 4 3 4 3 5 6 5 5 3 0 2 3 5 7 3 5 3 17 9 6 6 10 14 11 6 4 5 20 21 31 32 44
7 4 6 8 8 3 4 5 4 9 4 5 5 4 2 4 6 4 5 5 6 7 11 7 3 7 5 1 6 8 9 9 10 7 8 15 20 16 15 7 7 15 26 32 43
3 1 2 4 2 3 3 5 7 5 6 10 4 4 3 5 4 6 7 5 7 5 2 3 6 7 16 20 18 18 19 17 7 11 14 8 11 16 12 7 8 18 29 36 43
4 4 2 8 6 5 3 2 8 5 4 4 5 16 13 7 9 7 7 6 7 9 4 4 4 4 7 13 18 9 11 14 15 8 6 6 14 3 2 5 12 19 22 24 38
4 7 4 4 2 2 2 3 6 13 7 8 8 13 9 9 15 19 19 21 9 10 8 5 3 3 6 4 1 4 9 9 4 13 3 9 2 10 3 9 13 22 14 28 35
Wind_Direction
12 9 6 3 358 354 350 347 345 344 341 335 323 312 303 297 280 264 253 242 217 180 188 191 193 179 171 188 185 171 105 236 228 183 158 337 348 157 119 153 168 157 157 162 157
11 8 6 3 359 354 351 349 348 345 338 334 329 316 308 299 294 276 282 249 214 197 182 180 174 170 180 194 209 192 185 214 216 159 134 24 316 229 132 160 79 110 151 156 158
8 5 2 1 358 353 351 351 350 345 337 331 327 321 312 306 310 3 322 216 196 198 194 186 166 164 197 186 208 202 209 168 223 154 132 171 214 191 170 215 194 154 154 158 161
4 2 0 358 356 353 352 353 347 344 342 332 326 319 315 297 284 182 82 180 187 191 188 180 176 171 168 199 207 254 239 227 208 200 198 185 211 196 195 250 203 182 163 159 164
1 358 357 355 353 353 352 351 341 340 336 323 317 318 309 262 256 259 257 204 179 183 187 180 179 186 186 198 220 234 256 260 241 255 242 234 189 181 202 244 178 160 160 163 166
1 357 356 354 349 349 350 346 344 344 349 2 338 314 286 255 283 259 219 252 193 185 186 187 190 183 207 225 196 200 245 257 269 266 235 211 184 152 193 164 156 160 167 170 173
5 360 357 354 346 346 346 343 341 337 332 337 344 312 269 264 228 143 191 227 201 194 190 196 190 183 195 105 254 257 278 297 270 261 235 203 150 207 155 156 159 166 171 175 179
1 0 358 355 346 340 340 343 342 334 327 331 335 319 267 341 326 268 269 223 204 200 205 202 194 200 198 292 334 180 158 204 248 210 207 168 211 149 157 155 166 171 174 180 185
356 354 357 357 349 339 338 344 341 337 340 336 354 326 314 13 5 320 333 246 213 210 205 221 203 211 224 232 352 296 210 183 278 199 180 197 139 163 164 166 170 177 180 186 189
353 349 352 355 350 340 339 342 342 321 344 357 0 328 356 324 337 318 357 182 190 195 206 215 190 173 156 152 214 202 204 212 216 218 196 211 181 168 174 178 176 182 187 192 195
351 348 346 351 350 340 343 7 16 352 336 303 313 267 335 346 5 1 343 232 190 163 166 201 188 203 209 209 188 187 203 215 250 198 174 208 200 180 181 180 186 188 194 199 202
350 346 339 347 347 344 353 46 29 342 308 357 40 306 2 355 339 14 1 340 197 191 156 147 218 221 212 187 216 244 245 250 286 212 178 251 215 189 182 191 192 189 196 202 202
349 345 336 344 345 355 19 14 357 341 257 293 5 21 5 341 18 17 12 337 269 217 194 206 228 199 205 204 200 221 223 221 235 57 215 138 256 194 203 200 196 206 204 202 203
349 344 338 348 15 351 21 356 343 337 63 289 2 21 5 18 358 9 358 354 312 235 217 227 235 208 193 217 197 220 212 225 244 134 218 162 236 212 186 198 201 205 210 207 210
350 344 343 358 17 5 347 347 334 59 327 19 20 7 37 48 299 346 8 341 231 276 288 221 200 221 211 210 199 230 167 204 237 200 298 237 114 244 188 202 206 206 215 210 212
350 343 348 357 348 352 352 340 127 47 242 67 64 351 20 27 22 348 11 9 356 307 266 249 267 211 225 221 216 164 169 194 129 130 253 240 178 237 198 208 210 210 215 211 213
350 343 0 23 350 343 343 352 42 136 351 10 320 342 46 1 31 13 17 38 25 2 1 317 244 259 228 210 204 197 144 214 226 200 236 226 195 220 202 209 210 211 215 208 211
351 349 49 7 327 324 342 43 79 344 330 340 348 15 28 15 50 15 24 30 44 48 301 340 253 222 218 210 197 209 200 169 189 201 227 170 214 240 199 217 216 217 217 208 208
349 347 9 13 345 320 355 33 205 314 304 332 327 29 24 350 26 30 356 104 58 28 25 332 277 346 221 212 194 197 212 184 107 336 154 214 236 300 190 225 206 219 217 206 210
344 340 329 342 340 317 87 226 196 2 322 326 94 1 343 334 50 52 305 14 63 28 7 301 298 262 281 220 228 199 158 202 216 199 224 260 209 213 180 213 210 220 211 212 213
345 349 342 329 318 220 166 221 164 39 30 32 223 260 248 31 151 177 259 333 25 4 350 313 232 296 314 216 214 197 197 196 174 181 223 186 240 192 192 196 207 209 211 210 209
352 346 348 355 49 29 10 321 316 274 309 335 255 209 229 193 240 226 205 202 1 18 316 253 282 265 257 298 308 225 175 170 204 212 253 169 253 235 208 182 189 206 212 211 207
339 305 360 14 56 345 323 303 293 270 259 178 235 205 203 220 249 222 181 182 95 310 102 312 262 306 292 279 212 177 199 198 205 124 210 223 256 205 252 193 180 198 218 214 207
341 348 338 51 103 70 329 273 301 320 290 347 239 235 190 216 229 248 240 196 139 261 227 206 250 227 250 322 2 309 329 224 185 198 192 224 252 254 276 270 263 209 213 234 210
340 327 2 319 359 338 225 270 294 347 353 339 330 8 280 255 249 232 241 189 160 183 169 253 253 222 251 260 271 265 275 285 254 208 204 213 231 246 255 293 290 296 278 254 205
327 342 353 292 287 318 302 320 318 325 298 284 334 314 296 215 220 234 241 228 211 187 221 243 258 257 272 243 233 248 253 255 253 202 216 199 240 207 173 17 1 328 251 204 190
310 291 272 263 282 257 245 264 282 299 275 212 270 300 280 261 267 270 256 259 216 164 199 217 256 332 267 323 44 202 346 321 52 47 360 213 286 303 46 44 15 346 274 199 191